GW7286 Weather Reports


time (UTC)temp
F
wind
direction
speed
knots
gust
knots
rain 1hr
in
rain 24hr
in
rain mn
in
humidity
%
barometer
mb
20260508010006 43 261 0.0 0.0 0.00 0.00 0.00 64 1011.1
20260508004503 45 261 0.0 0.9 0.00 0.00 0.00 53 1010.9
20260508003006 46 246 0.0 1.7 0.00 0.00 0.00 51 1010.9
20260508001525 46 276 0.9 3.5 0.00 0.00 0.00 49 1010.9
20260508000025 48 267 0.0 2.6 0.00 0.00 0.00 46 1010.9
20260507234504 47 294 1.7 3.5 0.00 0.00 0.00 47 1010.8
20260507233004 47 264 0.9 5.2 0.00 0.00 0.00 44 1010.8
20260507231510 47 287 3.5 6.1 0.00 0.00 0.00 44 1010.8
20260507230036 47 290 3.5 7.8 0.00 0.00 0.00 43 1011.0
20260507224531 47 274 2.6 6.1 0.00 0.00 0.00 44 1011.0
20260507223006 47 276 3.5 7.0 0.00 0.00 0.00 42 1011.1
20260507221507 47 287 5.2 7.8 0.00 0.00 0.00 42 1011.1
20260507220011 47 309 4.3 9.6 0.00 0.00 0.00 41 1011.2
20260507214526 48 354 1.7 7.0 0.00 0.00 0.00 45 1011.1
20260507213026 48 302 4.3 7.8 0.00 0.00 0.00 42 1011.1
20260507211505 48 288 2.6 9.6 0.00 0.00 0.00 43 1011.0
20260507210008 48 291 3.5 7.8 0.00 0.00 0.00 45 1011.1
20260507204515 47 266 1.7 9.6 0.00 0.00 0.00 48 1011.1
20260507203035 47 302 2.6 5.2 0.00 0.00 0.00 46 1011.2
20260507201527 46 259 2.6 6.1 0.00 0.00 0.00 48 1011.3
20260507200010 47 300 3.5 8.7 0.00 0.00 0.00 47 1011.4
20260507194511 46 96 0.0 3.5 0.00 0.00 0.00 50 1011.5
20260507193039 45 311 2.6 6.1 0.00 0.00 0.00 50 1011.6
20260507191526 45 302 2.6 7.0 0.00 0.00 0.00 54 1011.7
20260507190035 45 262 4.3 7.0 0.00 0.00 0.00 51 1011.8
20260507184510 45 326 5.2 9.6 0.00 0.00 0.00 51 1011.8
20260507183032 45 275 3.5 8.7 0.00 0.00 0.00 49 1011.9
20260507181532 45 273 4.3 8.7 0.00 0.00 0.00 50 1011.9
20260507180024 45 268 4.3 7.0 0.00 0.00 0.00 48 1011.9
20260507174528 45 259 0.9 7.8 0.00 0.00 0.00 50 1012.0
20260507173014 45 288 5.2 7.8 0.00 0.00 0.00 49 1012.2
20260507171523 45 319 5.2 9.6 0.00 0.00 0.00 49 1012.4
20260507170023 45 286 1.7 7.8 0.00 0.00 0.00 52 1012.7
20260507164524 44 303 2.6 7.8 0.00 0.00 0.00 54 1012.8
20260507163030 44 296 2.6 9.6 0.00 0.00 0.00 55 1012.7
20260507161511 44 275 2.6 9.6 0.00 0.00 0.00 55 1013.0
20260507160024 44 230 4.3 7.0 0.00 0.00 0.00 56 1013.1
20260507154529 44 221 3.5 7.8 0.00 0.00 0.00 55 1012.9
20260507153028 44 285 4.3 9.6 0.00 0.00 0.00 56 1013.1
20260507151528 44 292 4.3 9.6 0.00 0.00 0.00 56 1013.1
20260507150026 44 257 1.7 6.1 0.00 0.00 0.00 58 1013.3
20260507144531 44 263 3.5 7.8 0.00 0.00 0.00 60 1013.2
20260507143026 44 269 2.6 7.0 0.00 0.00 0.00 60 1013.3
20260507141528 43 268 3.5 7.8 0.00 0.00 0.00 58 1013.2
20260507140010 43 287 5.2 8.7 0.00 0.00 0.00 62 1013.3
20260507134522 43 245 3.5 7.0 0.00 0.00 0.00 62 1013.3
20260507133028 43 312 2.6 6.1 0.00 0.00 0.00 65 1013.3
20260507131529 42 250 4.3 7.0 0.00 0.00 0.00 68 1013.2
20260507130051 41 288 3.5 6.1 0.00 0.00 0.00 72 1013.2
20260507124512 40 294 1.7 4.3 0.00 0.00 0.00 77 1013.2
20260507123014 37 247 0.9 4.3 0.00 0.00 0.00 86 1013.1
20260507121526 35 139 0.0 0.0 0.00 0.00 0.00 93 1013.1
20260507120034 33 139 0.0 0.0 0.00 0.00 0.00 94 1013.1
20260507114523 32 139 0.0 0.0 0.00 0.00 0.00 94 1012.9
20260507113023 30 139 0.0 0.0 0.00 0.00 0.00 93 1012.8
20260507111526 30 139 0.0 0.0 0.00 0.00 0.00 93 1012.7
20260507110027 30 139 0.0 0.0 0.00 0.00 0.00 93 1012.4
20260507104528 30 139 0.0 0.0 0.00 0.00 0.00 92 1012.3
20260507103028 30 139 0.0 0.0 0.00 0.00 0.00 92 1012.2
20260507101538 31 139 0.0 0.0 0.00 0.00 0.00 91 1012.3
20260507100030 31 139 0.0 0.0 0.00 0.00 0.00 90 1012.3
20260507094524 32 141 0.0 0.0 0.00 0.00 0.00 90 1012.4
20260507093026 33 141 0.0 0.0 0.00 0.00 0.00 89 1012.4
20260507091529 33 141 0.0 0.0 0.00 0.00 0.00 87 1012.5
20260507090018 34 141 0.0 0.0 0.00 0.00 0.00 87 1012.6
20260507084525 35 141 0.0 0.0 0.00 0.00 0.00 86 1012.7
20260507083024 35 141 0.0 0.0 0.00 0.00 0.00 86 1012.8
20260507081527 36 141 0.0 0.0 0.00 0.00 0.00 86 1012.8
20260507080026 36 141 0.0 0.0 0.00 0.00 0.00 84 1012.9
20260507074524 36 141 0.0 0.0 0.00 0.00 0.00 82 1012.8
20260507073018 37 141 0.0 0.0 0.00 0.00 0.00 81 1012.8
20260507071525 37 141 0.0 0.0 0.00 0.00 0.00 81 1012.9
20260507070037 37 141 0.0 0.0 0.00 0.00 0.00 80 1013.0
20260507064534 37 141 0.0 0.0 0.00 0.00 0.00 79 1013.2
20260507063030 38 141 0.0 0.0 0.00 0.00 0.00 79 1013.4
20260507061527 38 141 0.0 0.0 0.00 0.00 0.00 78 1013.4
20260507060024 38 141 0.0 0.0 0.00 0.00 0.00 79 1013.5
20260507054509 38 141 0.0 0.0 0.00 0.00 0.00 77 1013.6
20260507053022 38 141 0.0 0.0 0.00 0.00 0.00 76 1013.6
20260507051520 38 141 0.0 0.0 0.00 0.00 0.00 77 1013.7
20260507050034 38 141 0.0 0.0 0.00 0.00 0.00 77 1013.7
20260507044506 38 141 0.0 0.0 0.00 0.00 0.00 75 1013.6
20260507043009 38 141 0.0 0.0 0.00 0.00 0.00 75 1013.7
20260507041531 38 141 0.0 0.0 0.00 0.00 0.00 75 1013.8
20260507040028 38 141 0.0 0.0 0.00 0.00 0.00 78 1013.8
20260507034524 38 141 0.0 0.0 0.00 0.00 0.00 79 1013.9
20260507033008 38 141 0.0 0.0 0.00 0.00 0.00 79 1014.0
20260507031529 38 141 0.0 0.0 0.00 0.00 0.00 79 1014.0
20260507030025 38 141 0.0 0.0 0.00 0.00 0.00 78 1014.1
20260507024528 38 141 0.0 0.0 0.00 0.00 0.00 78 1014.0
20260507023026 39 98 0.0 0.0 0.00 0.00 0.00 78 1014.1
20260507021506 39 6 0.0 0.0 0.00 0.00 0.00 74 1014.0
20260507020012 39 6 0.0 0.0 0.00 0.00 0.00 74 1014.0
20260507014539 40 79 0.0 0.0 0.00 0.00 0.00 70 1013.9
20260507013027 40 53 0.0 1.7 0.00 0.00 0.00 69 1013.7
20260507011528 41 43 0.9 2.6 0.00 0.00 0.00 68 1013.7